Year,Month,Day,Hour,Minute,Value (Times are PST for temperature in C)
2014,06,16,00,00,11.10
2014,06,16,00,01,11.10
2014,06,16,00,02,11.10
2014,06,16,00,03,11.10
2014,06,16,00,04,11.10
2014,06,16,00,05,11.10
2014,06,16,00,06,11.10
2014,06,16,00,07,10.90
2014,06,16,00,08,10.90
2014,06,16,00,09,10.90
2014,06,16,00,10,10.90
2014,06,16,00,11,10.90
2014,06,16,00,12,10.90
2014,06,16,00,13,10.80
2014,06,16,00,14,10.80
2014,06,16,00,15,10.70
2014,06,16,00,16,10.70
2014,06,16,00,17,10.70
2014,06,16,00,18,10.70
2014,06,16,00,19,10.60
2014,06,16,00,20,10.60
2014,06,16,00,21,10.60
2014,06,16,00,22,10.60
2014,06,16,00,23,10.60
2014,06,16,00,24,10.60
2014,06,16,00,25,10.60
2014,06,16,00,26,10.60
2014,06,16,00,27,10.60
2014,06,16,00,28,10.60
2014,06,16,00,29,10.60
2014,06,16,00,30,10.60
2014,06,16,00,31,10.60
2014,06,16,00,33,10.60
2014,06,16,00,34,10.60
2014,06,16,00,35,10.60
2014,06,16,00,36,10.60
2014,06,16,00,37,10.60
2014,06,16,00,38,10.40
2014,06,16,00,39,10.40
2014,06,16,00,40,10.40
2014,06,16,00,41,10.40
2014,06,16,00,42,10.40
2014,06,16,00,43,10.40
2014,06,16,00,44,10.40
2014,06,16,00,45,10.40
2014,06,16,00,46,10.40
2014,06,16,00,47,10.40
2014,06,16,00,48,10.40
2014,06,16,00,49,10.40
2014,06,16,00,50,10.40
2014,06,16,00,51,10.40
2014,06,16,00,52,10.40
2014,06,16,00,53,10.40
2014,06,16,00,54,10.40
2014,06,16,00,55,10.40
2014,06,16,00,56,10.40
2014,06,16,00,57,10.40
2014,06,16,00,58,10.40
2014,06,16,00,59,10.40
2014,06,16,01,00,10.40
2014,06,16,01,01,10.60
2014,06,16,01,02,10.60
2014,06,16,01,03,10.60
2014,06,16,01,04,10.60
2014,06,16,01,05,10.60
2014,06,16,01,06,10.60
2014,06,16,01,07,10.60
2014,06,16,01,08,10.60
2014,06,16,01,09,10.60
2014,06,16,01,10,10.60
2014,06,16,01,11,10.60
2014,06,16,01,12,10.60
2014,06,16,01,13,10.60
2014,06,16,01,14,10.60
2014,06,16,01,15,10.60
2014,06,16,01,16,10.60
2014,06,16,01,17,10.60
2014,06,16,01,18,10.60
2014,06,16,01,19,10.60
2014,06,16,01,20,10.60
2014,06,16,01,21,10.60
2014,06,16,01,22,10.60
2014,06,16,01,23,10.60
2014,06,16,01,24,10.60
2014,06,16,01,25,10.60
2014,06,16,01,26,10.60
2014,06,16,01,27,10.60
2014,06,16,01,28,10.60
2014,06,16,01,29,10.60
2014,06,16,01,30,10.60
2014,06,16,01,31,10.60
2014,06,16,01,32,10.60
2014,06,16,01,33,10.60
2014,06,16,01,34,10.60
2014,06,16,01,35,10.60
2014,06,16,01,36,10.60
2014,06,16,01,37,10.60
2014,06,16,01,38,10.60
2014,06,16,01,39,10.60
2014,06,16,01,40,10.60
2014,06,16,01,41,10.60
2014,06,16,01,42,10.70
2014,06,16,01,43,10.70
2014,06,16,01,44,10.70
2014,06,16,01,45,10.70
2014,06,16,01,46,10.70
2014,06,16,01,47,10.70
2014,06,16,01,48,10.70
2014,06,16,01,49,10.60
2014,06,16,01,50,10.60
2014,06,16,01,51,10.60
2014,06,16,01,52,10.60
2014,06,16,01,53,10.60
2014,06,16,01,54,10.60
2014,06,16,01,55,10.60
2014,06,16,01,56,10.60
2014,06,16,01,57,10.60
2014,06,16,01,58,10.60
2014,06,16,01,59,10.60
2014,06,16,02,00,10.60
2014,06,16,02,01,10.60
2014,06,16,02,02,10.60
2014,06,16,02,03,10.60
2014,06,16,02,04,10.60
2014,06,16,02,05,10.60
2014,06,16,02,06,10.60
2014,06,16,02,07,10.60
2014,06,16,02,08,10.60
2014,06,16,02,09,10.60
2014,06,16,02,10,10.40
2014,06,16,02,11,10.40
2014,06,16,02,12,10.40
2014,06,16,02,13,10.40
2014,06,16,02,14,10.40
2014,06,16,02,15,10.40
2014,06,16,02,16,10.40
2014,06,16,02,17,10.40
2014,06,16,02,18,10.40
2014,06,16,02,19,10.40
2014,06,16,02,20,10.40
2014,06,16,02,21,10.40
2014,06,16,02,22,10.40
2014,06,16,02,23,10.40
2014,06,16,02,24,10.40
2014,06,16,02,25,10.40
2014,06,16,02,26,10.40
2014,06,16,02,27,10.40
2014,06,16,02,28,10.40
2014,06,16,02,29,10.40
2014,06,16,02,30,10.40
2014,06,16,02,31,10.40
2014,06,16,02,32,10.40
2014,06,16,02,33,10.40
2014,06,16,02,34,10.40
2014,06,16,02,35,10.40
2014,06,16,02,36,10.40
2014,06,16,02,37,10.40
2014,06,16,02,38,10.40
2014,06,16,02,39,10.40
2014,06,16,02,40,10.40
2014,06,16,02,41,10.40
2014,06,16,02,42,10.40
2014,06,16,02,43,10.40
2014,06,16,02,44,10.40
2014,06,16,02,45,10.40
2014,06,16,02,46,10.40
2014,06,16,02,47,10.40
2014,06,16,02,48,10.40
2014,06,16,02,49,10.40
2014,06,16,02,50,10.40
2014,06,16,02,51,10.40
2014,06,16,02,52,10.40
2014,06,16,02,53,10.40
2014,06,16,02,54,10.40
2014,06,16,02,55,10.40
2014,06,16,02,56,10.40
2014,06,16,02,57,10.40
2014,06,16,02,58,10.40
2014,06,16,02,59,10.40
2014,06,16,03,00,10.40
2014,06,16,03,01,10.40
2014,06,16,03,02,10.40
2014,06,16,03,03,10.40
2014,06,16,03,04,10.40
2014,06,16,03,05,10.40
2014,06,16,03,06,10.40
2014,06,16,03,07,10.40
2014,06,16,03,08,10.40
2014,06,16,03,09,10.40
2014,06,16,03,10,10.40
2014,06,16,03,11,10.40
2014,06,16,03,12,10.40
2014,06,16,03,13,10.40
2014,06,16,03,14,10.40
2014,06,16,03,15,10.40
2014,06,16,03,16,10.40
2014,06,16,03,17,10.40
2014,06,16,03,18,10.40
2014,06,16,03,19,10.40
2014,06,16,03,20,10.40
2014,06,16,03,21,10.40
2014,06,16,03,22,10.40
2014,06,16,03,23,10.40
2014,06,16,03,24,10.40
2014,06,16,03,25,10.40
2014,06,16,03,26,10.40
2014,06,16,03,27,10.40
2014,06,16,03,28,10.40
2014,06,16,03,29,10.40
2014,06,16,03,30,10.40
2014,06,16,03,31,10.40
2014,06,16,03,32,10.40
2014,06,16,03,33,10.40
2014,06,16,03,34,10.40
2014,06,16,03,35,10.40
2014,06,16,03,36,10.40
2014,06,16,03,37,10.40
2014,06,16,03,38,10.40
2014,06,16,03,39,10.40
2014,06,16,03,40,10.40
2014,06,16,03,41,10.40
2014,06,16,03,42,10.40
2014,06,16,03,43,10.40
2014,06,16,03,44,10.40
2014,06,16,03,45,10.40
2014,06,16,03,46,10.40
2014,06,16,03,47,10.40
2014,06,16,03,48,10.40
2014,06,16,03,49,10.40
2014,06,16,03,50,10.40
2014,06,16,03,51,10.60
2014,06,16,03,52,10.40
2014,06,16,03,53,10.60
2014,06,16,03,54,10.40
2014,06,16,03,55,10.40
2014,06,16,03,56,10.40
2014,06,16,03,57,10.40
2014,06,16,03,58,10.40
2014,06,16,03,59,10.40
2014,06,16,04,00,10.40
2014,06,16,04,01,10.60
2014,06,16,04,02,10.60
2014,06,16,04,03,10.60
2014,06,16,04,04,10.60
2014,06,16,04,05,10.60
2014,06,16,04,06,10.60
2014,06,16,04,07,10.60
2014,06,16,04,08,10.60
2014,06,16,04,09,10.60
2014,06,16,04,10,10.60
2014,06,16,04,11,10.60
2014,06,16,04,12,10.60
2014,06,16,04,13,10.60
2014,06,16,04,14,10.60
2014,06,16,04,15,10.60
2014,06,16,04,16,10.60
2014,06,16,04,17,10.60
2014,06,16,04,18,10.60
2014,06,16,04,19,10.60
2014,06,16,04,20,10.60
2014,06,16,04,21,10.60
2014,06,16,04,22,10.60
2014,06,16,04,23,10.60
2014,06,16,04,24,10.60
2014,06,16,04,25,10.60
2014,06,16,04,26,10.60
2014,06,16,04,27,10.60
2014,06,16,04,28,10.60
2014,06,16,04,29,10.60
2014,06,16,04,30,10.60
2014,06,16,04,31,10.60
2014,06,16,04,32,10.60
2014,06,16,04,33,10.60
2014,06,16,04,34,10.60
2014,06,16,04,35,10.60
2014,06,16,04,36,10.60
2014,06,16,04,37,10.60
2014,06,16,04,38,10.60
2014,06,16,04,39,10.60
2014,06,16,04,40,10.60
2014,06,16,04,41,10.60
2014,06,16,04,42,10.60
2014,06,16,04,43,10.60
2014,06,16,04,44,10.60
2014,06,16,04,45,10.60
2014,06,16,04,46,10.60
2014,06,16,04,47,10.60
2014,06,16,04,48,10.60
2014,06,16,04,49,10.60
2014,06,16,04,50,10.40
2014,06,16,04,51,10.40
2014,06,16,04,52,10.40
2014,06,16,04,53,10.40
2014,06,16,04,54,10.40
2014,06,16,04,55,10.40
2014,06,16,04,56,10.40
2014,06,16,04,57,10.40
2014,06,16,04,58,10.40
2014,06,16,04,59,10.40
2014,06,16,05,00,10.40
2014,06,16,05,01,10.40
2014,06,16,05,02,10.40
2014,06,16,05,03,10.40
2014,06,16,05,04,10.40
2014,06,16,05,05,10.40
2014,06,16,05,06,10.40
2014,06,16,05,07,10.40
2014,06,16,05,08,10.60
2014,06,16,05,09,10.60
2014,06,16,05,10,10.60
2014,06,16,05,11,10.60
2014,06,16,05,12,10.60
2014,06,16,05,13,10.60
2014,06,16,05,14,10.60
2014,06,16,05,15,10.60
2014,06,16,05,16,10.60
2014,06,16,05,17,10.60
2014,06,16,05,18,10.40
2014,06,16,05,19,10.40
2014,06,16,05,20,10.40
2014,06,16,05,21,10.40
2014,06,16,05,22,10.40
2014,06,16,05,23,10.40
2014,06,16,05,24,10.40
2014,06,16,05,25,10.40
2014,06,16,05,26,10.40
2014,06,16,05,27,10.40
2014,06,16,05,28,10.30
2014,06,16,05,29,10.30
2014,06,16,05,30,10.30
2014,06,16,05,31,10.30
2014,06,16,05,32,10.30
2014,06,16,05,33,10.30
2014,06,16,05,34,10.30
2014,06,16,05,35,10.30
2014,06,16,05,36,10.30
2014,06,16,05,37,10.30
2014,06,16,05,38,10.30
2014,06,16,05,39,10.30
2014,06,16,05,40,10.30
2014,06,16,05,41,10.30
2014,06,16,05,42,10.30
2014,06,16,05,43,10.30
2014,06,16,05,44,10.30
2014,06,16,05,45,10.20
2014,06,16,05,46,10.20
2014,06,16,05,47,10.20
2014,06,16,05,48,10.20
2014,06,16,05,49,10.20
2014,06,16,05,50,10.20
2014,06,16,05,51,10.20
2014,06,16,05,52,10.20
2014,06,16,05,53,10.20
2014,06,16,05,54,10.20
2014,06,16,05,55,10.20
2014,06,16,05,56,10.20
2014,06,16,05,57,10.20
2014,06,16,05,58,10.20
2014,06,16,05,59,10.20
2014,06,16,06,00,10.20
2014,06,16,06,01,10.20
2014,06,16,06,02,10.20
2014,06,16,06,03,10.10
2014,06,16,06,04,10.10
2014,06,16,06,05,10.20
2014,06,16,06,06,10.20
2014,06,16,06,07,10.20
2014,06,16,06,08,10.20
2014,06,16,06,09,10.20
2014,06,16,06,10,10.20
2014,06,16,06,11,10.20
2014,06,16,06,12,10.20
2014,06,16,06,13,10.20
2014,06,16,06,14,10.20
2014,06,16,06,15,10.20
2014,06,16,06,16,10.20
2014,06,16,06,17,10.20
2014,06,16,06,18,10.20
2014,06,16,06,19,10.20
2014,06,16,06,20,10.20
2014,06,16,06,21,10.20
2014,06,16,06,22,10.20
2014,06,16,06,23,10.30
2014,06,16,06,24,10.30
2014,06,16,06,25,10.30
2014,06,16,06,26,10.30
2014,06,16,06,27,10.30
2014,06,16,06,28,10.30
2014,06,16,06,29,10.30
2014,06,16,06,30,10.30
2014,06,16,06,31,10.30
2014,06,16,06,32,10.30
2014,06,16,06,33,10.30
2014,06,16,06,34,10.30
2014,06,16,06,35,10.30
2014,06,16,06,36,10.30
2014,06,16,06,37,10.30
2014,06,16,06,38,10.40
2014,06,16,06,39,10.40
2014,06,16,06,40,10.40
2014,06,16,06,41,10.40
2014,06,16,06,42,10.40
2014,06,16,06,43,10.40
2014,06,16,06,44,10.40
2014,06,16,06,45,10.40
2014,06,16,06,46,10.40
2014,06,16,06,47,10.40
2014,06,16,06,48,10.40
2014,06,16,06,49,10.40
2014,06,16,06,50,10.40
2014,06,16,06,51,10.40
2014,06,16,06,52,10.40
2014,06,16,06,53,10.40
2014,06,16,06,54,10.40
2014,06,16,06,55,10.40
2014,06,16,06,56,10.40
2014,06,16,06,57,10.40
2014,06,16,06,58,10.40
2014,06,16,06,59,10.40
2014,06,16,07,00,10.40
2014,06,16,07,01,10.40
2014,06,16,07,02,10.40
2014,06,16,07,03,10.40
2014,06,16,07,04,10.40
2014,06,16,07,05,10.40
2014,06,16,07,06,10.40
2014,06,16,07,07,10.60
2014,06,16,07,08,10.60
2014,06,16,07,09,10.60
2014,06,16,07,10,10.60
2014,06,16,07,11,10.60
2014,06,16,07,12,10.60
2014,06,16,07,13,10.60
2014,06,16,07,14,10.60
2014,06,16,07,15,10.70
2014,06,16,07,16,10.70
2014,06,16,07,17,10.70
2014,06,16,07,18,10.70
2014,06,16,07,19,10.70
2014,06,16,07,20,10.80
2014,06,16,07,21,10.80
2014,06,16,07,22,10.80
2014,06,16,07,23,10.80
2014,06,16,07,24,10.90
2014,06,16,07,25,10.90
2014,06,16,07,26,10.90
2014,06,16,07,27,10.90
2014,06,16,07,28,10.90
2014,06,16,07,29,10.90
2014,06,16,07,30,10.90
2014,06,16,07,31,10.90
2014,06,16,07,32,10.90
2014,06,16,07,33,10.90
2014,06,16,07,34,10.90
2014,06,16,07,35,10.90
2014,06,16,07,36,10.90
2014,06,16,07,37,10.90
2014,06,16,07,38,10.90
2014,06,16,07,39,10.90
2014,06,16,07,40,10.90
2014,06,16,07,41,10.90
2014,06,16,07,42,10.90
2014,06,16,07,43,10.90
2014,06,16,07,44,10.90
2014,06,16,07,45,10.90
2014,06,16,07,46,10.90
2014,06,16,07,47,10.90
2014,06,16,07,48,10.90
2014,06,16,07,49,11.10
2014,06,16,07,50,11.10
2014,06,16,07,51,11.10
2014,06,16,07,52,11.10
2014,06,16,07,53,11.10
2014,06,16,07,54,11.10
2014,06,16,07,55,11.10
2014,06,16,07,56,11.10
2014,06,16,07,57,11.20
2014,06,16,07,58,11.20
2014,06,16,07,59,11.20
2014,06,16,08,00,11.20
2014,06,16,08,01,11.20
2014,06,16,08,02,11.30
2014,06,16,08,03,11.30
2014,06,16,08,04,11.30
2014,06,16,08,05,11.30
2014,06,16,08,06,11.30
2014,06,16,08,07,11.40
2014,06,16,08,08,11.40
2014,06,16,08,09,11.40
2014,06,16,08,10,11.40
2014,06,16,08,11,11.40
2014,06,16,08,12,11.60
2014,06,16,08,13,11.60
2014,06,16,08,14,11.60
2014,06,16,08,15,11.60
2014,06,16,08,16,11.60
2014,06,16,08,17,11.60
2014,06,16,08,18,11.60
2014,06,16,08,19,11.60
2014,06,16,08,20,11.60
2014,06,16,08,21,11.60
2014,06,16,08,22,11.60
2014,06,16,08,23,11.60
2014,06,16,08,24,11.60
2014,06,16,08,25,11.60
2014,06,16,08,26,11.60
2014,06,16,08,27,11.60
2014,06,16,08,28,11.60
2014,06,16,08,29,11.60
2014,06,16,08,30,11.60
2014,06,16,08,31,11.60
2014,06,16,08,32,11.70
2014,06,16,08,33,11.80
2014,06,16,08,34,11.80
2014,06,16,08,35,11.80
2014,06,16,08,36,11.80
2014,06,16,08,37,11.80
2014,06,16,08,38,11.90
2014,06,16,08,39,11.90
2014,06,16,08,40,12.00
2014,06,16,08,41,12.00
2014,06,16,08,42,12.10
2014,06,16,08,43,12.10
2014,06,16,08,45,12.20
2014,06,16,08,46,12.20
2014,06,16,08,47,12.20
2014,06,16,08,48,12.20
2014,06,16,08,49,12.20
2014,06,16,08,50,12.20
2014,06,16,08,51,12.20
2014,06,16,08,52,12.20
2014,06,16,08,53,12.30
2014,06,16,08,54,12.30
2014,06,16,08,55,12.30
2014,06,16,08,56,12.30
2014,06,16,08,57,12.30
2014,06,16,08,58,12.30
2014,06,16,08,59,12.30
2014,06,16,09,00,12.30
2014,06,16,09,01,12.30
2014,06,16,09,02,12.20
2014,06,16,09,03,12.20
2014,06,16,09,04,12.20
2014,06,16,09,05,12.30
2014,06,16,09,06,12.30
2014,06,16,09,07,12.30
2014,06,16,09,08,12.30
2014,06,16,09,09,12.30
2014,06,16,09,10,12.30
2014,06,16,09,11,12.30
2014,06,16,09,12,12.30
2014,06,16,09,13,12.30
2014,06,16,09,14,12.30
2014,06,16,09,15,12.30
2014,06,16,09,16,12.30
2014,06,16,09,17,12.30
2014,06,16,09,18,12.30
2014,06,16,09,19,12.30
2014,06,16,09,20,12.20
2014,06,16,09,21,12.20
2014,06,16,09,22,12.20
2014,06,16,09,23,12.30
2014,06,16,09,24,12.30
2014,06,16,09,25,12.30
2014,06,16,09,26,12.30
2014,06,16,09,27,12.30
2014,06,16,09,28,12.30
2014,06,16,09,29,12.30
2014,06,16,09,30,12.30
2014,06,16,09,31,12.30
2014,06,16,09,32,12.40
2014,06,16,09,33,12.40
2014,06,16,09,34,12.40
2014,06,16,09,35,12.40
2014,06,16,09,36,12.40
2014,06,16,09,37,12.40
2014,06,16,09,38,12.50
2014,06,16,09,39,12.50
2014,06,16,09,40,12.60
2014,06,16,09,41,12.60
2014,06,16,09,42,12.60
2014,06,16,09,43,12.60
2014,06,16,09,44,12.60
2014,06,16,09,45,12.60
2014,06,16,09,46,12.70
2014,06,16,09,47,12.70
2014,06,16,09,48,12.70
2014,06,16,09,49,12.80
2014,06,16,09,50,12.80
2014,06,16,09,51,12.80
2014,06,16,09,52,12.80
2014,06,16,09,53,12.80
2014,06,16,09,54,12.80
2014,06,16,09,55,12.90
2014,06,16,09,56,12.90
2014,06,16,09,57,12.90
2014,06,16,09,58,12.90
2014,06,16,09,59,13.00
2014,06,16,10,00,13.00
2014,06,16,10,01,13.10
2014,06,16,10,02,13.10
2014,06,16,10,03,13.20
2014,06,16,10,04,13.30
2014,06,16,10,05,13.20
2014,06,16,10,06,13.30
2014,06,16,10,07,13.30
2014,06,16,10,08,13.30
2014,06,16,10,09,13.40
2014,06,16,10,10,13.50
2014,06,16,10,11,13.60
2014,06,16,10,12,13.70
2014,06,16,10,13,13.70
2014,06,16,10,14,13.70
2014,06,16,10,15,13.70
2014,06,16,10,16,13.80
2014,06,16,10,17,13.90
2014,06,16,10,18,14.00
2014,06,16,10,19,14.10
2014,06,16,10,20,14.10
2014,06,16,10,21,14.10
2014,06,16,10,22,14.20
2014,06,16,10,23,14.20
2014,06,16,10,24,14.20
2014,06,16,10,25,14.20
2014,06,16,10,26,14.20
2014,06,16,10,27,14.20
2014,06,16,10,28,14.20
2014,06,16,10,29,14.30
2014,06,16,10,30,14.40
2014,06,16,10,31,14.40
2014,06,16,10,32,14.50
2014,06,16,10,33,14.50
2014,06,16,10,34,14.60
2014,06,16,10,35,14.70
2014,06,16,10,36,14.80
2014,06,16,10,37,14.90
2014,06,16,10,38,15.00
2014,06,16,10,39,15.10
2014,06,16,10,40,15.30
2014,06,16,10,41,15.30
2014,06,16,10,42,15.40
2014,06,16,10,43,15.60
2014,06,16,10,44,15.60
2014,06,16,10,45,15.60
2014,06,16,10,46,15.60
2014,06,16,10,47,15.70
2014,06,16,10,48,15.70
2014,06,16,10,49,15.80
2014,06,16,10,50,15.80
2014,06,16,10,51,15.80
2014,06,16,10,52,15.90
2014,06,16,10,53,15.90
2014,06,16,10,54,15.90
2014,06,16,10,55,15.90
2014,06,16,10,56,15.90
2014,06,16,10,57,15.90
2014,06,16,10,58,15.90
2014,06,16,10,59,15.90
2014,06,16,11,00,15.90
2014,06,16,11,01,15.90
2014,06,16,11,02,16.10
2014,06,16,11,03,16.10
2014,06,16,11,04,16.10
2014,06,16,11,05,16.10
2014,06,16,11,06,16.10
2014,06,16,11,07,16.20
2014,06,16,11,08,16.30
2014,06,16,11,09,16.40
2014,06,16,11,10,16.60
2014,06,16,11,11,16.70
2014,06,16,11,12,16.70
2014,06,16,11,13,16.80
2014,06,16,11,14,16.90
2014,06,16,11,15,17.10
2014,06,16,11,16,17.20
2014,06,16,11,17,17.20
2014,06,16,11,18,17.30
2014,06,16,11,19,17.30
2014,06,16,11,20,17.40
2014,06,16,11,21,17.50
2014,06,16,11,22,17.60
2014,06,16,11,23,17.70
2014,06,16,11,24,17.70
2014,06,16,11,25,17.80
2014,06,16,11,26,17.70
2014,06,16,11,27,17.60
2014,06,16,11,28,17.50
2014,06,16,11,29,17.40
2014,06,16,11,30,17.40
2014,06,16,11,31,17.40
2014,06,16,11,32,17.40
2014,06,16,11,33,17.40
2014,06,16,11,34,17.40
2014,06,16,11,35,17.50
2014,06,16,11,36,17.50
2014,06,16,11,37,17.60
2014,06,16,11,38,17.70
2014,06,16,11,39,17.70
2014,06,16,11,41,17.80
2014,06,16,11,42,17.80
2014,06,16,11,43,17.80
2014,06,16,11,44,17.80
2014,06,16,11,45,17.80
2014,06,16,11,46,17.90
2014,06,16,11,47,17.90
2014,06,16,11,48,17.90
2014,06,16,11,49,17.90
2014,06,16,11,51,17.90
2014,06,16,11,52,17.90
2014,06,16,11,53,17.90
2014,06,16,11,54,17.90
2014,06,16,11,55,18.10
2014,06,16,11,56,18.10
2014,06,16,11,57,18.10
2014,06,16,11,58,18.10
2014,06,16,11,59,18.10
2014,06,16,12,00,18.10
2014,06,16,12,01,17.90
2014,06,16,12,02,17.90
2014,06,16,12,03,17.90
2014,06,16,12,04,18.10
2014,06,16,12,05,18.20
2014,06,16,12,06,18.30
2014,06,16,12,07,18.40
2014,06,16,12,08,18.50
2014,06,16,12,09,18.60
2014,06,16,12,10,18.70
2014,06,16,12,11,18.80
2014,06,16,12,12,18.80
2014,06,16,12,13,18.80
2014,06,16,12,14,18.70
2014,06,16,12,15,18.50
2014,06,16,12,16,18.40
2014,06,16,12,17,18.20
2014,06,16,12,18,18.20
2014,06,16,12,19,18.20
2014,06,16,12,20,18.20
2014,06,16,12,22,18.20
2014,06,16,12,23,18.10
2014,06,16,12,24,18.10
2014,06,16,12,25,18.10
2014,06,16,12,26,18.10
2014,06,16,12,27,18.10
2014,06,16,12,28,18.20
2014,06,16,12,29,18.20
2014,06,16,12,30,18.20
2014,06,16,12,31,18.20
2014,06,16,12,32,18.20
2014,06,16,12,33,18.10
2014,06,16,12,35,18.10
2014,06,16,12,36,18.20
2014,06,16,12,37,18.20
2014,06,16,12,38,18.20
2014,06,16,12,39,18.30
2014,06,16,12,40,18.30
2014,06,16,12,41,18.40
2014,06,16,12,42,18.50
2014,06,16,12,43,18.50
2014,06,16,12,44,18.60
2014,06,16,12,45,18.60
2014,06,16,12,46,18.50
2014,06,16,12,47,18.50
2014,06,16,12,48,18.40
2014,06,16,12,49,18.50
2014,06,16,12,51,18.50
2014,06,16,12,52,18.60
2014,06,16,12,53,18.60
2014,06,16,12,54,18.60
2014,06,16,12,55,18.50
2014,06,16,12,56,18.40
2014,06,16,12,57,18.40
2014,06,16,12,58,18.30
2014,06,16,12,59,18.30
2014,06,16,13,00,18.30
2014,06,16,13,01,18.20
2014,06,16,13,02,18.20
2014,06,16,13,03,18.20
2014,06,16,13,04,18.20
2014,06,16,13,05,18.20
2014,06,16,13,06,18.10
2014,06,16,13,07,18.10
2014,06,16,13,08,17.90
2014,06,16,13,09,17.90
2014,06,16,13,10,17.90
2014,06,16,13,11,17.90
2014,06,16,13,12,18.10
2014,06,16,13,13,18.20
2014,06,16,13,14,18.30
2014,06,16,13,15,18.40
2014,06,16,13,16,18.50
2014,06,16,13,17,18.60
2014,06,16,13,18,18.60
2014,06,16,13,19,18.60
2014,06,16,13,20,18.60
2014,06,16,13,21,18.60
2014,06,16,13,22,18.60
2014,06,16,13,23,18.60
2014,06,16,13,24,18.50
2014,06,16,13,25,18.50
2014,06,16,13,26,18.40
2014,06,16,13,27,18.30
2014,06,16,13,28,18.20
2014,06,16,13,29,18.20
2014,06,16,13,30,18.10
2014,06,16,13,31,18.10
2014,06,16,13,32,18.10
2014,06,16,13,33,18.10
2014,06,16,13,34,18.10
2014,06,16,13,35,18.20
2014,06,16,13,36,18.20
2014,06,16,13,37,18.30
2014,06,16,13,38,18.40
2014,06,16,13,39,18.60
2014,06,16,13,40,18.80
2014,06,16,13,41,18.90
2014,06,16,13,42,19.10
2014,06,16,13,43,19.10
2014,06,16,13,44,19.20
2014,06,16,13,45,19.30
2014,06,16,13,46,19.40
2014,06,16,13,47,19.50
2014,06,16,13,48,19.60
2014,06,16,13,49,19.70
2014,06,16,13,50,19.90
2014,06,16,13,51,19.90
2014,06,16,13,52,19.90
2014,06,16,13,53,19.90
2014,06,16,13,54,19.90
2014,06,16,13,55,19.90
2014,06,16,13,56,19.90
2014,06,16,13,57,20.20
2014,06,16,13,58,20.20
2014,06,16,13,59,20.30
2014,06,16,14,00,20.40
2014,06,16,14,01,20.50
2014,06,16,14,02,20.40
2014,06,16,14,03,20.40
2014,06,16,14,04,20.40
2014,06,16,14,06,20.30
2014,06,16,14,07,20.30
2014,06,16,14,08,20.40
2014,06,16,14,09,20.50
2014,06,16,14,10,20.60
2014,06,16,14,11,20.70
2014,06,16,14,12,20.70
2014,06,16,14,13,20.60
2014,06,16,14,14,20.50
2014,06,16,14,15,20.40
2014,06,16,14,16,20.40
2014,06,16,14,17,20.50
2014,06,16,14,18,20.50
2014,06,16,14,20,20.50
2014,06,16,14,21,20.60
2014,06,16,14,22,20.60
2014,06,16,14,23,20.70
2014,06,16,14,24,20.80
2014,06,16,14,25,20.90
2014,06,16,14,26,21.00
2014,06,16,14,27,21.20
2014,06,16,14,28,21.30
2014,06,16,14,29,21.30
2014,06,16,14,30,21.30
2014,06,16,14,32,21.10
2014,06,16,14,33,21.20
2014,06,16,14,34,21.20
2014,06,16,14,35,21.20
2014,06,16,14,36,21.30
2014,06,16,14,37,21.20
2014,06,16,14,38,21.30
2014,06,16,14,39,21.30
2014,06,16,14,40,21.20
2014,06,16,14,41,21.10
2014,06,16,14,42,21.10
2014,06,16,14,43,21.00
2014,06,16,14,44,21.00
2014,06,16,14,45,21.00
2014,06,16,14,47,21.00
2014,06,16,14,48,21.10
2014,06,16,14,49,21.20
2014,06,16,14,50,21.30
2014,06,16,14,51,21.30
2014,06,16,14,52,21.30
2014,06,16,14,53,21.40
2014,06,16,14,54,21.60
2014,06,16,14,55,21.60
2014,06,16,14,56,21.60
2014,06,16,14,57,21.30
2014,06,16,14,58,21.30
2014,06,16,14,59,21.30
2014,06,16,15,00,21.30
2014,06,16,15,01,21.30
2014,06,16,15,02,21.30
2014,06,16,15,03,21.30
2014,06,16,15,04,21.30
2014,06,16,15,06,21.30
2014,06,16,15,07,21.40
2014,06,16,15,08,21.40
2014,06,16,15,09,21.40
2014,06,16,15,11,21.60
2014,06,16,15,12,21.70
2014,06,16,15,13,21.80
2014,06,16,15,14,21.80
2014,06,16,15,15,21.90
2014,06,16,15,16,22.00
2014,06,16,15,17,22.00
2014,06,16,15,18,22.10
2014,06,16,15,19,22.10
2014,06,16,15,20,22.10
2014,06,16,15,21,22.10
2014,06,16,15,22,22.20
2014,06,16,15,23,22.20
2014,06,16,15,24,22.20
2014,06,16,15,25,22.20
2014,06,16,15,26,22.20
2014,06,16,15,27,22.20
2014,06,16,15,28,22.30
2014,06,16,15,29,22.40
2014,06,16,15,30,22.40
2014,06,16,15,31,22.50
2014,06,16,15,32,22.40
2014,06,16,15,33,22.40
2014,06,16,15,34,22.40
2014,06,16,15,35,22.40
2014,06,16,15,36,22.40
2014,06,16,15,37,22.50
2014,06,16,15,38,22.60
2014,06,16,15,39,22.60
2014,06,16,15,40,22.50
2014,06,16,15,41,22.30
2014,06,16,15,42,22.20
2014,06,16,15,43,22.20
2014,06,16,15,44,22.20
2014,06,16,15,45,22.20
2014,06,16,15,46,22.30
2014,06,16,15,47,22.40
2014,06,16,15,48,22.50
2014,06,16,15,49,22.70
2014,06,16,15,50,22.80
2014,06,16,15,51,22.90
2014,06,16,15,52,22.90
2014,06,16,15,53,22.90
2014,06,16,15,54,23.10
2014,06,16,15,55,23.10
2014,06,16,15,56,23.20
2014,06,16,15,57,23.30
2014,06,16,15,59,23.30
2014,06,16,16,00,23.60
2014,06,16,16,02,23.70
2014,06,16,16,04,23.70
2014,06,16,16,05,23.80
2014,06,16,16,06,23.80
2014,06,16,16,07,23.80
2014,06,16,16,08,23.80
2014,06,16,16,09,23.70
2014,06,16,16,10,23.70
2014,06,16,16,11,23.60
2014,06,16,16,12,23.40
2014,06,16,16,13,23.30
2014,06,16,16,14,23.20
2014,06,16,16,15,23.20
2014,06,16,16,16,23.10
2014,06,16,16,17,22.80
2014,06,16,16,18,22.10
2014,06,16,16,19,21.60
2014,06,16,16,20,21.60
2014,06,16,16,21,21.60
2014,06,16,16,22,21.60
2014,06,16,16,23,21.60
2014,06,16,16,24,21.60
2014,06,16,16,25,21.60
2014,06,16,16,26,21.40
2014,06,16,16,27,21.30
2014,06,16,16,28,21.30
2014,06,16,16,29,21.40
2014,06,16,16,30,21.60
2014,06,16,16,31,21.60
2014,06,16,16,32,21.70
2014,06,16,16,33,21.70
2014,06,16,16,34,21.70
2014,06,16,16,35,21.70
2014,06,16,16,36,21.60
2014,06,16,16,37,21.40
2014,06,16,16,38,21.30
2014,06,16,16,39,21.00
2014,06,16,16,40,20.80
2014,06,16,16,41,20.70
2014,06,16,16,42,20.70
2014,06,16,16,43,20.70
2014,06,16,16,44,20.80
2014,06,16,16,45,20.90
2014,06,16,16,46,21.00
2014,06,16,16,47,21.10
2014,06,16,16,48,21.10
2014,06,16,16,49,21.10
2014,06,16,16,50,21.00
2014,06,16,16,51,20.80
2014,06,16,16,52,20.80
2014,06,16,16,53,20.60
2014,06,16,16,54,20.30
2014,06,16,16,55,20.20
2014,06,16,16,56,20.10
2014,06,16,16,57,19.90
2014,06,16,16,58,20.10
2014,06,16,16,59,20.10
2014,06,16,17,00,20.20
2014,06,16,17,01,20.20
2014,06,16,17,02,20.30
2014,06,16,17,03,20.30
2014,06,16,17,04,20.30
2014,06,16,17,05,20.40
2014,06,16,17,06,20.40
2014,06,16,17,07,20.50
2014,06,16,17,08,20.50
2014,06,16,17,09,20.60
2014,06,16,17,10,20.40
2014,06,16,17,11,20.30
2014,06,16,17,12,20.20
2014,06,16,17,13,20.20
2014,06,16,17,14,19.90
2014,06,16,17,15,19.90
2014,06,16,17,16,19.90
2014,06,16,17,17,19.90
2014,06,16,17,18,19.90
2014,06,16,17,19,19.80
2014,06,16,17,20,19.80
2014,06,16,17,21,19.80
2014,06,16,17,22,19.70
2014,06,16,17,23,19.60
2014,06,16,17,24,19.60
2014,06,16,17,25,19.60
2014,06,16,17,26,19.60
2014,06,16,17,27,19.60
2014,06,16,17,28,19.70
2014,06,16,17,29,19.80
2014,06,16,17,30,19.90
2014,06,16,17,31,19.90
2014,06,16,17,32,20.10
2014,06,16,17,33,20.20
2014,06,16,17,34,20.20
2014,06,16,17,35,20.30